EHI
0 0 0 0 0 0 0 0 0 0 0 0 0 0 0 0 0 0 0 0 0 0 0 0 0 0 0 0 0 0 0 0 0 0 0 0 0 0
0 0 0 0 0 0 0 0 0 0 0 0 0 0 0 0 0 0 0 0 0 0 0 0 0 0 0 0 0 0 0 0 0 0 0 0 0 0
0 0 0 0 0 0 0 0 0 0 0 0 0 0 0 0 0 0 0 0 0 0 0 0 0 0 0 0 0 0 0 0 0 0 0 0 0 0
0 0 0 0 0 0 0 0 0 0 0 0 0 0 0 0 0 0 0 0 0 0 0 0 0 0 0 0 0 0 0 0 0 0 0 0 0 0
0 0 0 0 0 0 0 0 0 0 0 0 0 0 0 0 0 0 0 0 0 0 0 0 0 0 0 0 0 0 0 0 0 0 0 0 0 0
0 0 0 0 0 0 0 0 0 0 0 0 0 0 0 0 0 0 0 0 0 0 0 0 0 0 0 0 0 0 0 0 0 0 0 0 0 0
0 0 0 0 0 0 0 0 0 0 0 0 0 0 0 0 0 0 0 0 0 0 0 0 0 0 0 0 0 0 0 0 0 0 0 0 0 0
0 0 0 0 0 0 0 0 0 0 0 0 0 0 0 0 0 0 0 0 0 0 0 0 0 0 0 0 0 0 0 0 0 0 0 0 0 0
0 0 0 0 0 0 0 0 0 0 0 0 0 0 0 0 0 0 0 0 0 0 0 0 0 0 0 0 0 0 0 0 0 0 0 0 0 0
0 0 0 0 0 0 0 0 0 0 0 0 0 0 0 0 0 0 0 0 0 0 0 0 0 0 0 0 0 0 0 0 0 0 0 0 0 0
0 0 0 0 0 0 0 0 0 0 0 0 0 0 0 0 0 0 0 0 0 0 0 0 0 0 0 0 0 0 0 0 0 0 0 0 0 0
0 0 0 0 0 0 0 0 0 0 0 0 0 0 0 0 0 0 0 0 0 0 0 0 0 0 0 0 0 0 0 0 0 0 0 0 0 0
0 0 0 0 0 0 0 0 0 0 0 0 0 0 0 0 0 0 0 0 0 0 0 0 0 0 0 0 0 0 0 0 0 0 0 0 0 0
0 0 0 0 0 0 0 0 0 0 0 0 0 0 0 0 0 0 0 0 0 0 0 0 0 0 0 0 0 0 0 0 0 0 0 0 0 0
0 0 0 0 0 0 0 0 0 0 0 0 0 0 0 0 0 0 0 0 0 0 0 0 0 0 0 0 0 0 0 0 0 0 0 0 0 0
0 0 0 0 0 0 0 0 0 0 0 0 0 0 0 0 0 0 0 0 0 0 0 0 0 0 0 0 0 0 0 0 0 0 0 0 0 0
0 0 0 0 0 0 0 0 0 0 0 0 0 0 0 0 0 0 0 0 0 0 0 0 0 0 0 0 0 0 0 0 0 0 0 0 0 0
0 0 0 0 0 0 0 0 0 0 0 0 0 0 0 0 0 0 0 0 0 0 0 0 0 0 0 0 0 0 0 0 0 0 0 0 0 0
0 0 0 0 0 0 0 0 0 0 0 0 0 0 0 0 0 0 0 0 0 0 0 0 0 0 0 0 0 0 0 0 0 0 0 0 0 0
0 0 0 0 0 0 0 0 0 0 0 0 0 0 0 0 0 0 0 0 0 0 0 0 0 0 0 0 0 0 0 0 0 0 0 0 0 0
0 0 0 0 0 0 0 0 0 0 0 0 0 0 0 0 0 0 0 0 0 0 0 0 0 0 0 0 0 0 0 0 0 0 0 0 0 0
0 0 0 0 0 0 0 0 0 0 0 0 0 0 0 0 0 0 0 0 0 0 0 0 0 0 0 0 0 0 0 0 0 0 0 0 0 0
0 0 0 0 0 0 0 0 0 0 0 0 0 0 0 0 0 0 0 0 0 0 0 0 0 0 0 0 0 0 0 0 0 0 0 0 0 0
Wind_Speed
5 5 4 3 3 3 3 4 4 3 4 3 2 2 2 2 3 2 2 5 6 6 6 6 5 5 5 6 6 6 7 7 8 8 9 9 9 9
4 5 4 3 3 3 4 3 3 3 3 3 2 2 2 3 4 3 3 6 7 7 7 7 6 6 6 7 7 7 7 7 8 8 9 9 9 10
5 6 6 5 4 4 4 3 3 3 4 2 2 2 3 3 3 2 3 3 4 7 8 8 8 7 7 8 8 8 8 8 9 9 9 9 10 11
7 6 7 6 6 5 5 5 4 4 4 4 2 2 3 4 3 3 3 3 3 7 7 8 8 8 8 8 8 8 8 8 9 9 9 10 10 11
7 8 7 7 7 6 6 6 4 4 3 4 3 2 2 3 3 3 3 3 4 5 7 7 8 8 8 8 8 8 8 9 9 9 9 10 10 11
6 7 7 8 8 7 7 7 5 5 4 4 4 3 3 3 2 3 3 3 3 3 5 6 8 8 8 8 8 8 8 9 9 10 10 10 11 11
6 7 7 8 10 8 7 7 7 6 5 5 4 4 4 4 4 3 3 3 3 3 2 3 4 3 4 7 8 9 9 10 10 11 11 11 11 11
6 6 7 8 10 11 11 11 10 9 8 7 6 6 7 5 3 3 3 3 4 3 2 4 3 4 3 3 8 10 10 10 10 10 11 11 11 12
6 5 5 6 8 6 9 11 11 13 11 8 7 8 7 6 6 5 5 5 4 3 3 4 3 4 3 5 10 10 10 10 10 11 11 11 11 12
5 6 6 6 7 7 7 7 7 8 10 8 7 7 6 6 7 6 5 4 3 3 3 4 3 3 3 3 8 10 10 9 9 10 10 10 10 10
4 5 5 6 10 10 7 7 6 6 9 11 10 8 9 8 6 3 3 3 4 3 2 2 2 2 2 3 5 9 9 8 9 9 10 10 10 10
3 4 6 7 9 11 7 7 7 6 5 6 7 7 6 7 9 6 5 5 3 3 3 3 2 1 2 2 2 2 3 7 9 9 10 11 11 6
3 3 3 7 9 10 8 6 8 6 5 5 4 4 4 4 5 4 4 4 4 3 3 3 2 2 2 3 2 2 2 2 3 5 8 10 11 8
3 2 3 6 8 9 7 7 8 6 3 4 4 4 4 3 3 3 3 3 3 3 3 3 3 3 3 3 3 2 2 2 3 3 3 8 9 10
3 5 5 6 6 5 7 8 6 3 3 3 4 3 3 3 2 2 1 1 1 1 2 3 3 3 3 3 3 3 3 3 3 3 3 4 4 4
3 4 5 5 4 4 4 4 3 3 4 3 3 2 2 2 2 2 2 2 1 1 1 2 2 3 3 3 3 4 3 3 3 3 4 4 4 4
3 1 1 1 2 2 2 2 2 3 3 3 3 3 3 2 2 2 2 2 2 2 2 1 1 1 2 3 4 4 4 4 4 4 4 5 5 5
4 2 2 3 3 3 2 2 2 3 3 3 3 3 3 3 3 2 2 3 3 3 3 2 1 1 1 3 5 5 4 4 3 3 4 5 6 5
3 2 3 3 3 3 3 3 3 3 3 3 3 3 3 3 3 3 3 3 3 3 3 3 3 3 3 4 4 5 4 3 3 4 4 5 6 6
2 2 2 3 3 3 3 3 2 3 3 3 3 3 3 3 3 3 3 4 3 3 3 3 3 4 5 4 4 4 6 4 4 4 4 4 5 8
2 2 2 2 2 2 2 3 3 3 3 3 3 3 3 3 3 4 4 6 4 4 4 4 5 5 2 1 2 3 4 6 7 5 4 4 5 5
2 2 2 2 3 2 2 3 3 3 3 3 3 3 3 4 4 5 4 4 4 4 4 3 2 2 2 3 5 5 4 4 6 9 9 8 5 5
2 2 2 2 2 2 3 3 3 3 3 3 3 3 4 4 4 4 4 4 4 4 4 3 2 2 3 4 4 4 5 5 4 4 5 8 11 13
Wind_Direction
199 198 200 203 195 186 187 185 176 201 232 219 211 210 218 221 246 240 230 249 258 265 272 279 283 283 286 286 286 290 295 300 302 300 301 303 305 304
204 201 207 204 197 196 202 203 195 196 227 215 220 227 232 246 246 241 232 253 254 260 264 265 265 269 273 275 278 281 287 291 293 292 293 295 299 299
212 208 212 205 201 205 199 198 204 197 223 246 230 219 221 235 248 244 236 233 240 253 261 255 257 259 263 267 271 273 279 287 290 289 290 292 295 296
213 210 215 210 208 204 197 201 206 207 206 226 230 216 225 224 236 244 260 248 236 249 257 255 253 256 261 264 267 270 274 279 283 286 288 289 291 294
214 211 211 207 211 205 200 201 205 211 201 209 227 223 226 221 233 251 258 258 251 249 255 258 256 259 263 266 267 267 271 275 278 281 283 285 289 292
221 219 215 211 211 207 205 201 198 199 200 205 218 222 221 217 211 229 253 252 249 252 254 260 264 267 269 270 269 271 273 276 277 277 279 282 284 287
221 223 224 224 223 220 214 200 194 198 202 207 216 222 219 207 215 219 240 256 255 243 246 257 259 256 256 261 266 270 274 274 274 276 278 279 282 284
223 227 228 227 230 231 230 224 211 202 202 206 213 216 219 215 208 216 224 240 253 225 226 256 245 248 247 239 263 271 272 274 274 276 279 279 283 282
222 223 229 225 226 218 224 230 228 227 223 215 214 217 212 206 201 211 219 234 248 225 213 247 238 244 249 258 266 272 276 275 275 276 276 278 284 286
227 224 219 216 215 213 211 216 221 225 228 224 218 217 217 209 206 210 215 234 261 243 211 242 240 244 257 251 263 270 276 279 280 280 282 285 287 290
233 229 224 213 221 221 211 210 222 231 237 236 238 238 238 234 225 195 193 209 246 245 208 221 244 261 258 251 258 267 275 283 287 289 291 291 291 293
240 236 236 226 225 223 212 204 213 221 218 225 229 231 229 225 223 209 194 204 219 234 209 197 218 226 269 259 249 269 275 282 288 291 292 293 294 294
245 238 237 237 232 231 229 215 222 219 207 211 213 212 214 211 212 212 208 208 211 236 215 194 210 217 235 271 274 265 261 277 285 286 289 291 291 289
252 252 242 244 243 239 237 228 227 220 196 200 205 207 209 211 210 210 216 224 224 233 222 206 217 212 218 254 269 271 275 273 273 280 281 290 292 292
260 263 261 252 253 239 237 233 225 199 186 196 203 209 210 201 189 188 189 196 235 248 229 227 222 218 213 231 250 262 281 279 260 266 276 280 281 287
271 263 264 263 268 253 234 230 213 196 192 193 196 192 183 184 188 183 192 189 216 277 260 230 221 214 226 243 246 258 254 255 265 270 276 279 277 270
262 236 211 228 228 226 217 204 193 191 195 182 180 183 191 197 201 189 191 195 216 231 259 273 249 245 249 245 252 251 249 258 262 267 276 282 278 269
267 223 217 218 219 216 215 205 200 198 189 185 184 186 192 198 204 202 201 205 217 229 234 230 219 299 319 286 247 243 243 255 263 264 265 272 278 274
262 232 221 220 221 215 213 207 203 194 183 185 188 187 189 195 199 205 207 213 226 234 231 222 212 206 237 265 264 236 244 264 267 266 262 262 273 279
245 231 230 222 219 214 211 207 195 186 184 187 186 186 190 194 203 210 212 215 225 235 239 230 218 216 226 241 257 268 257 251 255 264 272 277 279 284
254 235 234 232 225 222 212 202 195 195 191 188 191 191 193 195 206 213 218 231 237 230 232 238 232 239 255 235 264 270 266 260 265 265 270 281 289 288
267 260 250 241 228 219 216 206 201 201 197 198 198 198 200 203 209 216 220 225 231 230 237 243 223 220 219 232 253 264 278 287 281 281 276 267 265 266
268 262 257 262 252 222 211 208 206 208 206 204 203 205 205 210 215 220 224 227 230 226 228 238 236 226 232 233 246 263 273 284 291 292 285 284 282 280